STARLINK-34467

Last updated on Thu Jul 03 2025 00:02:07 GMT+0000 (Coordinated Universal Time)

1 64423U 25129M 25183.58335648 -.01554691 00000+0 -18450-1 0 9990 2 64423 69.9996 351.5576 0003270 265.1904 27.5288 15.63975635 3689
UTC large
Height (km)
Speed (km/s)
/
Latitude / Longitude
Inclination (degrees)
Orbital Period (minutes)
Azimuth
Elevation
Range (km)
Doppler Factor

Next 0 passes for location: London (51.5072 / 0.1276)

Sorry there are no passes over London.